EDT,Max TemperatureF,Mean TemperatureF,Min TemperatureF,Max Dew PointF,MeanDew PointF,Min DewpointF,Max Humidity, Mean Humidity, Min Humidity, Max Sea Level PressureIn, Mean Sea Level PressureIn, Min Sea Level PressureIn, Max VisibilityMiles, Mean VisibilityMiles, Min VisibilityMiles, Max Wind SpeedMPH, Mean Wind SpeedMPH, Max Gust SpeedMPH,PrecipitationIn, CloudCover, Events, WindDirDegrees
2013-3-1,49,36,24,30,26,23,94,68,45,29.93,29.90,29.86,10,10,10,5,1,,0.00,6,,318
2013-3-2,45,38,30,35,28,20,99,72,46,29.93,29.88,29.82,10,10,5,14,1,21,0.00,7,Rain,357
2013-3-3,45,33,22,20,17,14,87,55,33,30.00,29.95,29.90,10,10,10,13,2,16,0.00,0,,334
2013-3-4,56,36,17,21,15,9,90,45,16,30.14,30.06,29.99,10,10,10,12,2,,0.00,0,,211
2013-3-5,47,41,35,44,35,23,98,80,54,30.06,29.87,29.65,10,9,2,13,2,20,0.43,6,Rain,24
2013-3-6,46,38,31,30,23,18,71,54,41,30.12,29.87,29.66,10,10,10,25,13,33,0.00,2,,314
2013-3-7,55,39,24,27,24,22,92,59,32,30.26,30.18,30.12,10,10,10,12,3,16,0.00,0,,350
2013-3-8,58,41,24,23,21,12,88,48,17,30.31,30.27,30.21,10,10,10,14,5,18,0.00,0,,6
2013-3-9,62,44,28,32,26,22,81,48,24,30.35,30.29,30.23,10,10,10,7,2,,0.00,0,,205
2013-3-10,65,50,35,35,32,29,86,50,29,30.30,30.23,30.16,10,10,10,12,3,18,0.00,0,,157
2013-3-11,59,52,44,51,42,34,99,71,55,30.19,30.02,29.85,10,9,2,8,1,,0.63,7,Rain,31
2013-3-12,65,54,44,54,42,26,100,69,27,30.01,29.86,29.76,10,8,1,12,3,,0.75,4,Rain,343
2013-3-13,53,43,33,29,23,15,76,47,27,30.16,30.07,30.01,10,10,10,25,5,39,0.00,1,,307
2013-3-14,52,40,29,18,14,9,62,38,20,30.29,30.21,30.16,10,10,10,13,4,17,0.00,0,,333
2013-3-15,68,47,26,38,28,17,77,50,29,30.19,30.06,29.91,10,10,10,17,3,23,0.00,0,,188
2013-3-16,78,64,49,46,42,38,73,47,30,29.92,29.83,29.73,10,10,10,16,6,28,0.00,2,,204
2013-3-17,76,62,47,50,44,40,79,55,32,30.09,29.94,29.86,10,10,10,18,4,23,0.00,3,,162
2013-3-18,46,42,38,40,39,37,100,93,75,30.14,30.04,29.88,10,6,2,8,4,,0.31,8,Rain-Thunderstorm,33
2013-3-19,62,50,37,40,28,11,100,55,19,30.08,29.96,29.85,10,8,0,23,5,32,0.01,2,Fog,301
2013-3-20,56,48,39,26,14,8,53,28,18,30.12,29.98,29.82,10,10,10,16,5,26,0.00,5,,301
2013-3-21,43,36,28,27,11,4,55,35,26,29.96,29.87,29.80,10,10,10,21,9,31,0.00,0,,308
2013-3-22,51,37,23,26,17,11,72,45,25,30.07,30.00,29.96,10,10,10,12,3,20,0.00,3,,172
2013-3-23,57,46,36,42,35,25,95,68,50,30.05,29.97,29.89,10,10,7,9,1,,0.02,5,Rain,140
2013-3-24,43,40,38,43,40,37,99,94,82,29.93,29.70,29.57,10,6,2,16,4,22,0.65,8,Rain,54
2013-3-25,43,39,35,38,25,17,100,62,37,29.90,29.69,29.55,10,8,0,22,7,40,0.05,7,Fog-Rain,295
2013-3-26,46,36,25,26,22,19,88,56,34,30.18,30.01,29.89,10,10,10,18,5,24,0.00,5,,311
2013-3-27,50,37,24,25,22,20,88,53,32,30.26,30.22,30.17,10,10,10,14,2,21,0.00,0,,23
2013-3-28,57,41,25,26,21,18,84,48,22,30.31,30.26,30.19,10,10,10,10,2,16,0.00,0,,341
2013-3-29,60,44,27,37,27,20,84,53,21,30.34,30.28,30.20,10,10,10,13,4,20,0.00,3,,292
2013-3-30,63,52,42,44,41,36,100,68,41,30.24,30.16,30.06,10,9,2,10,2,21,0.29,5,Rain,106
2013-3-31,70,58,47,55,50,42,100,85,53,30.06,29.91,29.82,10,8,1,16,3,26,0.18,7,Rain,217